Regional Weather Roundup
Issued by NWS

Home | Current Version | Previous Version | Text Only | Print | Product List | Glossary On
Versions: 1 2 3 4 5 6 7 8 9 10 11 12 13 14 15 16 17 18 19 20 21 22 23 24 25 26 27 28 29 30 31 32 33 34 35 36 37 38 39 40 41 42 43 44 45 46 47 48 49 50
000
ASUS43 KLSX 300459
RWRMO

WEATHER SUMMARY FOR MISSOURI
NATIONAL WEATHER SERVICE SPRINGFIELD MO
1200 AM CDT THU OCT 30 2014

NOTE: "FAIR" INDICATES FEW OR NO CLOUDS BELOW 12,000 FEET WITH NO
       SIGNIFICANT WEATHER AND/OR OBSTRUCTIONS TO VISIBILITY.
       CURRENT SKY AND/OR WEATHER CONDITIONS ARE NOT AVAILABLE FOR
       CHILLICOTHE AND FARMINGTON.

MOZ001>031-035>038-043-044-053-054-300600-
...NORTHERN AND WESTERN MISSOURI...

CITY           SKY/WX    TMP DP  RH WIND       PRES   REMARKS
KANSAS CTY INT CLEAR     44  35  70 SE9       30.09F
KANSAS C DTWN  CLEAR     50  34  54 CALM      30.10S
LEE`S SUMMIT   CLEAR     49  33  54 SE6       30.11S
ST JOSEPH      CLEAR     41  35  79 S3        30.08F
KIRKSVILLE     CLEAR     39  33  79 SE6       30.14F

$$
MOZ066>068-077>081-088>096-101>105-300600-
...SOUTHWEST MISSOURI...

CITY           SKY/WX    TMP DP  RH WIND       PRES   REMARKS
SPRINGFIELD    CLEAR     44  37  76 SE7       30.14F
JOPLIN         CLEAR     47  38  71 S7        30.14S

$$
MOZ032>034-039>042-045>050-055>058-069>072-300600-
...CENTRAL MISSOURI...

CITY           SKY/WX    TMP DP  RH WIND       PRES   REMARKS
COLUMBIA       CLEAR     45  33  63 E6        30.15F
JEFFERSON CITY CLEAR     38  34  85 CALM      30.16S
ROLLA          CLEAR     38  31  76 CALM      30.15S
SEDALIA        CLEAR     44  34  67 SE5       30.14F
OSAGE BEACH    CLEAR     39  32  75 CALM      30.15F

$$
MOZ051-052-059>065-300600-
...EAST CENTRAL MISSOURI...

CITY           SKY/WX    TMP DP  RH WIND       PRES   REMARKS
ST LOUIS INTL  CLEAR     44  37  76 CALM      30.17S
SPIRIT OF STL  CLEAR     37  35  92 CALM      30.17S
ST CHARLES     CLEAR     41  38  89 NW3       30.17R

$$
MOZ072>076-082>087-097>100-106>115-300600-
...SOUTH CENTRAL AND SOUTHEAST MISSOURI...

CITY           SKY/WX    TMP DP  RH WIND       PRES   REMARKS
CAPE GIRARDEAU CLEAR     38  36  92 CALM      30.16F
FARMINGTON     CLEAR     37  32  81 CALM      30.17F
POPLAR BLUFF   CLEAR     40  34  79 CALM      30.16S
WEST PLAINS    CLEAR     41  34  76 CALM      30.17F

$$



USA.gov is the U.S. government's official web portal to all federal, state and local government web resources and services.